TimeCDT,TemperatureF,Dew PointF,Humidity,Sea Level PressureIn,VisibilityMPH,Wind Direction,Wind SpeedMPH,Gust SpeedMPH,PrecipitationIn,Events,Conditions,WindDirDegrees,DateUTC
12:06 AM,51.8,48.2,88,30.13,10.0,NNE,15.0,18.4,N/A,,Overcast,30,2012-10-07 05:06:00
12:53 AM,52.0,46.9,83,30.13,10.0,NNE,12.7,18.4,N/A,,Overcast,20,2012-10-07 05:53:00
1:53 AM,51.1,45.0,80,30.14,10.0,NNE,12.7,17.3,N/A,,Overcast,30,2012-10-07 06:53:00
2:15 AM,51.8,44.6,76,30.14,10.0,NNE,10.4,-,N/A,,Overcast,20,2012-10-07 07:15:00
2:50 AM,51.8,44.6,76,30.15,10.0,NNE,9.2,19.6,N/A,,Overcast,30,2012-10-07 07:50:00
2:53 AM,51.1,45.0,80,30.15,10.0,Variable,6.9,19.6,N/A,,Overcast,0,2012-10-07 07:53:00
3:53 AM,50.0,44.1,80,30.15,10.0,NNE,11.5,-,N/A,,Overcast,20,2012-10-07 08:53:00
4:53 AM,50.0,43.0,77,30.16,10.0,North,5.8,-,N/A,,Overcast,10,2012-10-07 09:53:00
5:53 AM,48.9,43.0,80,30.16,10.0,NNE,10.4,-,N/A,,Overcast,20,2012-10-07 10:53:00
6:51 AM,50.0,42.8,76,30.17,10.0,NNE,9.2,-,N/A,,Overcast,30,2012-10-07 11:51:00
6:53 AM,50.0,43.0,77,30.18,10.0,NNE,6.9,-,N/A,,Overcast,20,2012-10-07 11:53:00
7:53 AM,50.0,43.0,77,30.20,10.0,North,11.5,-,N/A,,Overcast,10,2012-10-07 12:53:00
8:53 AM,51.1,43.0,74,30.22,10.0,NNE,10.4,-,N/A,,Overcast,20,2012-10-07 13:53:00
9:53 AM,51.1,42.1,71,30.22,5.0,NNE,16.1,20.7,N/A,,Haze,20,2012-10-07 14:53:00
10:53 AM,54.0,44.1,69,30.22,10.0,NE,13.8,19.6,N/A,,Overcast,40,2012-10-07 15:53:00
11:53 AM,57.9,45.0,62,30.21,9.0,NNE,9.2,17.3,N/A,,Overcast,30,2012-10-07 16:53:00
12:53 PM,60.1,46.0,60,30.17,8.0,NNE,9.2,-,N/A,,Scattered Clouds,30,2012-10-07 17:53:00
1:53 PM,60.1,46.0,60,30.15,10.0,NNE,10.4,16.1,N/A,,Overcast,30,2012-10-07 18:53:00
2:53 PM,60.1,46.9,62,30.13,10.0,North,8.1,-,N/A,,Overcast,10,2012-10-07 19:53:00
3:53 PM,63.0,46.9,56,30.11,10.0,North,8.1,-,N/A,,Partly Cloudy,360,2012-10-07 20:53:00
4:53 PM,64.0,46.9,54,30.10,10.0,North,13.8,-,N/A,,Clear,10,2012-10-07 21:53:00
5:53 PM,62.1,46.9,58,30.11,10.0,NNE,9.2,-,N/A,,Clear,20,2012-10-07 22:53:00
6:53 PM,57.9,46.9,67,30.12,10.0,NNE,8.1,-,N/A,,Clear,30,2012-10-07 23:53:00
7:53 PM,55.0,46.9,74,30.14,10.0,NNE,5.8,-,N/A,,Clear,30,2012-10-08 00:53:00
8:53 PM,54.0,46.0,75,30.15,10.0,NNE,6.9,-,N/A,,Mostly Cloudy,30,2012-10-08 01:53:00
9:53 PM,54.0,46.0,75,30.16,10.0,NNE,6.9,-,N/A,,Overcast,30,2012-10-08 02:53:00
10:53 PM,54.0,46.0,75,30.17,10.0,North,3.5,-,N/A,,Overcast,10,2012-10-08 03:53:00
11:53 PM,54.0,46.9,77,30.17,10.0,NNW,4.6,-,N/A,,Overcast,340,2012-10-08 04:53:00